JAL2432 RJFM-RJOO

Flight info

Callsign JAL2432
Flight time 0h 46m
Altitude 33000
Route MADOG Y753 IZUMI
Aircraft E170/M-SDE3GILORVW/S

Departure

Time 2026-04-29 16:23
Airport Miyazaki Airport (RJFM)

Arrival

Time 2026-04-29 17:09
Airport Osaka Itami International Airport (RJOO)
Time Latitude Longitude Altitude Speed Heading
2026-04-29 16:09 31.87363 131.44202 23 ft 0 kts 206°
2026-04-29 16:17 31.87369 131.44206 23 ft 4 kts 214°
2026-04-29 16:17 31.87388 131.44213 25 ft 4 kts 188°
2026-04-29 16:17 31.87415 131.44214 23 ft 4 kts 179°
2026-04-29 16:17 31.87441 131.44210 23 ft 3 kts 187°
2026-04-29 16:18 31.87462 131.44217 25 ft 4 kts 209°
2026-04-29 16:18 31.87473 131.44225 23 ft 1 kts 213°
2026-04-29 16:20 31.87470 131.44222 23 ft 1 kts 226°
2026-04-29 16:20 31.87467 131.44189 23 ft 7 kts 281°
2026-04-29 16:20 31.87481 131.44110 23 ft 13 kts 281°
2026-04-29 16:21 31.87486 131.43986 23 ft 17 kts 270°
2026-04-29 16:21 31.87476 131.43846 22 ft 17 kts 265°
2026-04-29 16:21 31.87464 131.43707 22 ft 17 kts 274°
2026-04-29 16:21 31.87515 131.43629 22 ft 4 kts 349°
2026-04-29 16:22 31.87545 131.43624 22 ft 6 kts 356°
2026-04-29 16:22 31.87600 131.43635 22 ft 10 kts 34°
2026-04-29 16:22 31.87636 131.43753 22 ft 31 kts 83°
2026-04-29 16:22 31.87679 131.44326 24 ft 116 kts 88°
2026-04-29 16:23 31.87759 131.45515 583 ft 151 kts 85°
2026-04-29 16:23 31.87764 131.46791 1779 ft 171 kts 96°
2026-04-29 16:23 31.87111 131.48249 1906 ft 229 kts 131°
2026-04-29 16:23 31.85897 131.49517 1799 ft 237 kts 139°
2026-04-29 16:24 31.84616 131.50744 1967 ft 235 kts 137°
2026-04-29 16:24 31.83425 131.51987 2526 ft 221 kts 136°
2026-04-29 16:24 31.82276 131.53223 2636 ft 231 kts 135°
2026-04-29 16:24 31.81057 131.54543 2638 ft 242 kts 136°
2026-04-29 16:25 31.79798 131.55897 2675 ft 255 kts 136°
2026-04-29 16:25 31.78495 131.57296 3487 ft 243 kts 136°
2026-04-29 16:25 31.77219 131.58670 4233 ft 255 kts 137°
2026-04-29 16:25 31.75884 131.60104 5279 ft 261 kts 136°
2026-04-29 16:26 31.74827 131.61852 6232 ft 269 kts 110°
2026-04-29 16:26 31.74659 131.64032 7157 ft 277 kts 83°
2026-04-29 16:26 31.75038 131.66274 8046 ft 286 kts 78°
2026-04-29 16:26 31.75607 131.68550 8914 ft 292 kts 72°
2026-04-29 16:27 31.76320 131.70825 9691 ft 300 kts 70°
2026-04-29 16:27 31.77068 131.73143 10280 ft 313 kts 70°
2026-04-29 16:27 31.77873 131.75613 10762 ft 329 kts 69°
2026-04-29 16:27 31.78707 131.78163 11259 ft 344 kts 69°
2026-04-29 16:28 31.79582 131.80845 11849 ft 355 kts 69°
2026-04-29 16:28 31.80468 131.83575 12533 ft 363 kts 69°
2026-04-29 16:28 31.81069 131.85431 13009 ft 367 kts 69°
2026-04-29 16:28 31.82296 131.89205 14070 ft 374 kts 69°
2026-04-29 16:29 31.82915 131.91116 14610 ft 378 kts 69°
2026-04-29 16:29 31.84175 131.95001 15678 ft 386 kts 69°
2026-04-29 16:29 31.84815 131.96983 16190 ft 389 kts 69°
2026-04-29 16:29 31.85792 132.00006 16919 ft 395 kts 69°
2026-04-29 16:30 31.86768 132.03027 17600 ft 401 kts 69°
2026-04-29 16:30 31.87771 132.06131 18311 ft 406 kts 69°
2026-04-29 16:30 31.88768 132.09222 18999 ft 410 kts 69°
2026-04-29 16:30 31.89790 132.12403 19671 ft 415 kts 69°
2026-04-29 16:31 31.90808 132.15569 20350 ft 419 kts 69°
2026-04-29 16:31 31.92091 132.18682 20950 ft 423 kts 54°
2026-04-29 16:31 31.93904 132.21376 21621 ft 424 kts 45°
2026-04-29 16:31 31.95952 132.23915 22215 ft 426 kts 39°
2026-04-29 16:32 31.98208 132.26144 22782 ft 429 kts 36°
2026-04-29 16:32 32.00554 132.28383 23365 ft 432 kts 34°
2026-04-29 16:32 32.02889 132.30579 23893 ft 436 kts 34°
2026-04-29 16:32 32.05280 132.32822 24407 ft 440 kts 34°
2026-04-29 16:33 32.10078 132.37386 25436 ft 449 kts 38°
2026-04-29 16:33 32.12257 132.40082 25911 ft 455 kts 46°
2026-04-29 16:33 32.14247 132.43046 26386 ft 461 kts 53°
2026-04-29 16:34 32.15978 132.46214 26848 ft 464 kts 55°
2026-04-29 16:34 32.17700 132.49429 27262 ft 468 kts 56°
2026-04-29 16:34 32.19438 132.52723 27683 ft 472 kts 56°
2026-04-29 16:34 32.21185 132.56044 28075 ft 475 kts 56°
2026-04-29 16:35 32.22919 132.59342 28476 ft 478 kts 56°
2026-04-29 16:35 32.24687 132.62708 28868 ft 481 kts 56°
2026-04-29 16:35 32.26436 132.66041 29224 ft 483 kts 56°
2026-04-29 16:35 32.28228 132.69457 29586 ft 486 kts 56°
2026-04-29 16:36 32.29995 132.72828 29863 ft 491 kts 56°
2026-04-29 16:36 32.31811 132.76294 29988 ft 498 kts 56°
2026-04-29 16:36 32.33641 132.79793 30377 ft 499 kts 56°
2026-04-29 16:36 32.35448 132.83251 30805 ft 498 kts 56°
2026-04-29 16:37 32.37275 132.86748 31206 ft 497 kts 56°
2026-04-29 16:37 32.39096 132.90239 31632 ft 496 kts 56°
2026-04-29 16:37 32.40894 132.93689 32035 ft 496 kts 56°
2026-04-29 16:37 32.42099 132.96002 32289 ft 495 kts 56°
2026-04-29 16:38 32.44496 133.00608 32790 ft 494 kts 55°
2026-04-29 16:38 32.46291 133.04061 32974 ft 481 kts 55°
2026-04-29 16:38 32.48021 133.07394 33017 ft 466 kts 55°
2026-04-29 16:38 32.49729 133.10677 33070 ft 476 kts 55°
2026-04-29 16:39 32.53248 133.17469 33108 ft 494 kts 55°
2026-04-29 16:39 32.56898 133.24527 33105 ft 511 kts 55°
2026-04-29 16:40 32.60612 133.31720 33085 ft 507 kts 55°
2026-04-29 16:40 32.64305 133.38831 33096 ft 508 kts 56°
2026-04-29 16:41 32.67924 133.46056 33089 ft 507 kts 56°
2026-04-29 16:41 32.71524 133.53266 33093 ft 508 kts 56°
2026-04-29 16:42 32.75094 133.60428 33090 ft 507 kts 56°
2026-04-29 16:42 32.78708 133.67694 33092 ft 509 kts 56°
2026-04-29 16:43 32.82288 133.74903 33076 ft 509 kts 56°
2026-04-29 16:43 32.85879 133.82150 33086 ft 509 kts 56°
2026-04-29 16:44 32.89481 133.89432 33081 ft 509 kts 56°
2026-04-29 16:44 32.93056 133.96673 33082 ft 510 kts 56°
2026-04-29 16:45 32.96659 134.03987 33082 ft 509 kts 56°
2026-04-29 16:45 33.00231 134.11251 33082 ft 510 kts 56°
2026-04-29 16:46 33.03794 134.18509 33092 ft 510 kts 56°
2026-04-29 16:46 33.08010 134.25194 33092 ft 502 kts 40°
2026-04-29 16:47 33.13264 134.30624 33095 ft 497 kts 35°
2026-04-29 16:47 33.18518 134.35988 33088 ft 498 kts 34°
2026-04-29 16:48 33.23776 134.41368 32681 ft 499 kts 34°
2026-04-29 16:48 33.26427 134.44083 32225 ft 499 kts 35°
2026-04-29 16:48 33.29045 134.46768 31783 ft 500 kts 35°
2026-04-29 16:49 33.31678 134.49468 31336 ft 503 kts 35°
2026-04-29 16:49 33.34350 134.52214 30891 ft 505 kts 35°
2026-04-29 16:49 33.37022 134.54959 30446 ft 506 kts 35°
2026-04-29 16:49 33.39668 134.57680 29975 ft 508 kts 36°
2026-04-29 16:50 33.42371 134.60465 29483 ft 510 kts 36°
2026-04-29 16:50 33.45038 134.63211 28987 ft 510 kts 36°
2026-04-29 16:50 33.47740 134.66000 28488 ft 508 kts 36°
2026-04-29 16:50 33.50397 134.68741 27987 ft 504 kts 36°
2026-04-29 16:51 33.53040 134.71471 27484 ft 496 kts 36°
2026-04-29 16:51 33.55656 134.74174 26978 ft 492 kts 36°
2026-04-29 16:51 33.58247 134.76763 26484 ft 487 kts 33°
2026-04-29 16:51 33.60978 134.79108 25980 ft 477 kts 26°
2026-04-29 16:52 33.63765 134.81198 25492 ft 474 kts 26°
2026-04-29 16:52 33.66582 134.83285 24988 ft 470 kts 25°
2026-04-29 16:52 33.69344 134.85322 24495 ft 466 kts 25°
2026-04-29 16:52 33.72120 134.87366 23986 ft 463 kts 25°
2026-04-29 16:53 33.74845 134.89374 23486 ft 460 kts 25°
2026-04-29 16:53 33.77542 134.91365 22988 ft 456 kts 25°
2026-04-29 16:53 33.80257 134.93340 22483 ft 451 kts 24°
2026-04-29 16:53 33.82897 134.95332 21985 ft 448 kts 26°
2026-04-29 16:54 33.85511 134.97324 21484 ft 444 kts 26°
2026-04-29 16:54 33.88117 134.99319 20983 ft 441 kts 26°
2026-04-29 16:54 33.90711 135.01307 20478 ft 437 kts 26°
2026-04-29 16:54 33.93251 135.03252 19981 ft 434 kts 26°
2026-04-29 16:55 33.95768 135.05183 19482 ft 431 kts 26°
2026-04-29 16:55 33.98300 135.07124 18976 ft 428 kts 26°
2026-04-29 16:55 34.00815 135.09058 18475 ft 424 kts 26°
2026-04-29 16:55 34.03260 135.10943 17972 ft 418 kts 26°
2026-04-29 16:56 34.05690 135.12809 17459 ft 406 kts 26°
2026-04-29 16:56 34.08013 135.14598 16945 ft 395 kts 26°
2026-04-29 16:56 34.10337 135.16382 16429 ft 391 kts 26°
2026-04-29 16:56 34.12609 135.18133 15734 ft 391 kts 27°
2026-04-29 16:57 34.14910 135.19905 14966 ft 389 kts 27°
2026-04-29 16:57 34.17189 135.21664 14203 ft 385 kts 27°
2026-04-29 16:57 34.19414 135.23382 13431 ft 382 kts 28°
2026-04-29 16:57 34.21652 135.25111 12656 ft 377 kts 28°
2026-04-29 16:58 34.23833 135.26796 11882 ft 372 kts 29°
2026-04-29 16:58 34.25999 135.28472 11303 ft 363 kts 29°
2026-04-29 16:58 34.28097 135.30098 10877 ft 350 kts 29°
2026-04-29 16:58 34.30097 135.31650 10515 ft 338 kts 29°
2026-04-29 16:59 34.32058 135.33169 10178 ft 327 kts 29°
2026-04-29 16:59 34.33913 135.34605 10074 ft 311 kts 29°
2026-04-29 16:59 34.35724 135.36008 9821 ft 306 kts 30°
2026-04-29 16:59 34.37487 135.37375 9490 ft 300 kts 30°
2026-04-29 17:00 34.39221 135.38725 9164 ft 295 kts 30°
2026-04-29 17:00 34.40947 135.40072 8815 ft 292 kts 31°
2026-04-29 17:00 34.42484 135.41636 8466 ft 291 kts 42°
2026-04-29 17:00 34.43846 135.43452 8098 ft 288 kts 49°
2026-04-29 17:01 34.45083 135.45359 7729 ft 286 kts 51°
2026-04-29 17:01 34.46231 135.47276 7369 ft 283 kts 55°
2026-04-29 17:01 34.47248 135.49331 6997 ft 282 kts 59°
2026-04-29 17:01 34.48205 135.51379 6626 ft 281 kts 59°
2026-04-29 17:02 34.49154 135.53452 6243 ft 279 kts 60°
2026-04-29 17:02 34.50087 135.55488 5839 ft 278 kts 60°
2026-04-29 17:02 34.51028 135.57537 5447 ft 276 kts 60°
2026-04-29 17:02 34.51951 135.59547 5044 ft 274 kts 59°
2026-04-29 17:03 34.52881 135.61574 4646 ft 272 kts 59°
2026-04-29 17:03 34.54011 135.63355 4272 ft 267 kts 37°
2026-04-29 17:03 34.55601 135.64470 3936 ft 262 kts 21°
2026-04-29 17:03 34.57328 135.65155 3689 ft 258 kts 12°
2026-04-29 17:04 34.59097 135.65174 3298 ft 253 kts 344°
2026-04-29 17:04 34.60665 135.64338 3179 ft 243 kts 331°
2026-04-29 17:04 34.62008 135.63193 3156 ft 232 kts 322°
2026-04-29 17:04 34.63248 135.61995 3088 ft 222 kts 320°
2026-04-29 17:05 34.64325 135.60713 3030 ft 207 kts 316°
2026-04-29 17:05 34.65305 135.59568 2992 ft 186 kts 317°
2026-04-29 17:05 34.66192 135.58525 2982 ft 168 kts 317°
2026-04-29 17:05 34.66983 135.57578 2978 ft 154 kts 316°
2026-04-29 17:06 34.67729 135.56681 2976 ft 147 kts 316°
2026-04-29 17:06 34.68443 135.55813 2980 ft 146 kts 316°
2026-04-29 17:06 34.69165 135.54933 3023 ft 146 kts 316°
2026-04-29 17:06 34.69882 135.54061 3058 ft 148 kts 317°
2026-04-29 17:07 34.70615 135.53176 2988 ft 149 kts 316°
2026-04-29 17:07 34.71102 135.52566 2727 ft 150 kts 312°
2026-04-29 17:07 34.72032 135.51345 2361 ft 146 kts 310°
2026-04-29 17:07 34.72746 135.50442 2179 ft 152 kts 310°
2026-04-29 17:08 34.73520 135.49492 1917 ft 166 kts 313°
2026-04-29 17:08 34.74366 135.48494 1585 ft 173 kts 312°
2026-04-29 17:08 34.75200 135.47451 1182 ft 172 kts 315°
2026-04-29 17:08 34.76069 135.46525 783 ft 154 kts 318°
2026-04-29 17:09 34.76807 135.45640 364 ft 144 kts 316°
2026-04-29 17:09 34.77514 135.44812 104 ft 137 kts 316°
2026-04-29 17:09 34.78149 135.44054 50 ft 113 kts 315°
2026-04-29 17:09 34.78572 135.43582 46 ft 41 kts 330°
2026-04-29 17:10 34.78754 135.43467 47 ft 24 kts 333°
2026-04-29 17:10 34.78909 135.43415 47 ft 21 kts
2026-04-29 17:10 34.79022 135.43481 46 ft 18 kts 44°
2026-04-29 17:10 34.79098 135.43589 46 ft 13 kts 51°
2026-04-29 17:11 34.79152 135.43678 44 ft 12 kts 38°
2026-04-29 17:11 34.79164 135.43687 46 ft 0 kts 26°